{"data":{"norad_id":45152,"intl_designator":"2020-008X","name":"ONEWEB-0047","alt_names":[],"object_type":"PAYLOAD","status":"ACTIVE","operator":null,"country":"UK","launch_date":"2020-02-06","launch_site_code":"TYMSC","launch_vehicle":null,"mission":null,"orbit_class":"UNKNOWN","rcs_meters":null,"size_class":null,"mass_kg":null,"dimensions":null,"purposes":["comms"],"wikipedia_slug":null,"has_3d_model":false,"image_url":null,"decayed_at":null,"tle_current":{"epoch":"2026-09-20T01:28:16.447872Z","epoch_age_seconds":52211,"freshness":"FRESH","line1":"1 45152U 20008X   26263.06130148  .00000063  00000+0  14457-3 0  9991","line2":"2 45152  87.8917  17.3856 0001637  93.8480 266.2835 13.10377249320620","mean_motion":13.10377249,"eccentricity":0.0001637,"inclination_deg":87.8917,"raan_deg":17.3856,"arg_perigee_deg":93.848,"mean_anomaly_deg":266.2835,"bstar":0.00014457,"rev_number":32062,"period_min":109.8920178215,"perigee_km":1220.4559211347,"apogee_km":1222.9441077732,"semimajor_km":7599.8370144539,"source":"CELESTRAK","updated_at":"2026-09-20T09:00:44.549048Z"}}}